Hot Springs, VA

12:52 PM EST on December 07, 2016 (GMT -0500)
Ingalls

Weather History for KHSP - November, 2011

Change the Weather History Date:

Sunday, November 20, 2011

  Actual Average Record
Temperature  
Mean Temperature 50 °F -  
Max Temperature 55 °F 44 °F 57 °F (1999)
Min Temperature 44 °F 31 °F 21 °F (2000)
Degree Days  
Heating Degree Days 16    
Moisture  
Dew Point 47 °F    
Average Humidity 83    
Maximum Humidity 100    
Minimum Humidity 77    
Precipitation  
Precipitation 0.00 in - - ()
Sea Level Pressure  
Sea Level Pressure 30.29 in    
Wind  
Wind Speed 15 mph (WSW)    
Max Wind Speed 25 mph    
Max Gust Speed 31 mph    
Visibility 10 miles    
Events Rain    
Averages and records for this station are not official NWS values.
T = Trace of Precipitation, MM = Missing Value Source: NWS Daily Summary

Daily Weather History Graph

Daily Weather History Graph

Search for Another Location

Airport or City:

Trip Planner

Search our weather history database for the weather conditions in past years. The results will help you decide how hot, cold, wet, or windy it might be!

Date:

Astronomy

Nov. 20, 2011 Rise Set
Actual Time 7:04 AM EST 5:04 PM EST
Civil Twilight 6:36 AM EST 5:32 PM EST
Nautical Twilight 6:04 AM EST 6:04 PM EST
Astronomical Twilight 5:33 AM EST 6:36 PM EST
Moon 1:36 AM EST (11/20) 1:48 PM EST (11/20)
Length of Visible Light 10h 56m
Length of Day
9h 59m
Waning Crescent, 27% of the Moon is Illuminated
Nov 20
Waning Crescent
Nov 25
New
Dec 2
First Quarter
Dec 10
Full
Dec 17
Last Quarter

Hourly Weather History & Observations

Time (EST) Temp. Windchill Dew Point Humidity Pressure Visibility Wind Dir Wind Speed Gust Speed Precip Events Conditions
12:15 AM 44.6 °F 37.4 °F 39.2 °F 81% 30.29 in 10.0 mi SW 16.1 mph 19.6 mph N/A   Clear
12:35 AM 44.6 °F 38.4 °F 39.2 °F 81% 30.29 in 10.0 mi SW 12.7 mph 18.4 mph N/A   Clear
1:15 AM 44.6 °F 37.4 °F 39.2 °F 81% 30.28 in 10.0 mi SW 16.1 mph - N/A   Clear
1:35 AM 44.6 °F 39.2 °F 39.2 °F 81% 30.29 in 10.0 mi WSW 10.4 mph - N/A   Clear
1:55 AM 44.6 °F 37.2 °F 41.0 °F 87% 30.28 in 10.0 mi SW 17.3 mph 21.9 mph N/A   Mostly Cloudy
2:15 AM 44.6 °F 36.9 °F 41.0 °F 87% 30.28 in 10.0 mi SW 18.4 mph 23.0 mph N/A   Mostly Cloudy
2:35 AM 46.4 °F 39.5 °F 41.0 °F 81% 30.28 in 10.0 mi SW 17.3 mph 24.2 mph N/A   Scattered Clouds
2:55 AM 46.4 °F 39.8 °F 41.0 °F 81% 30.28 in 10.0 mi WSW 16.1 mph 21.9 mph N/A   Clear
3:35 AM 44.6 °F 37.2 °F 41.0 °F 87% 30.28 in 10.0 mi WSW 17.3 mph - N/A   Clear
3:55 AM 46.4 °F 39.0 °F 42.8 °F 87% 30.28 in 10.0 mi WSW 19.6 mph 23.0 mph N/A   Clear
4:15 AM 46.4 °F 38.7 °F 42.8 °F 87% 30.27 in 10.0 mi WSW 20.7 mph 25.3 mph N/A   Scattered Clouds
4:35 AM 46.4 °F 38.3 °F 42.8 °F 87% 30.27 in 10.0 mi WSW 23.0 mph 27.6 mph N/A   Mostly Cloudy
5:15 AM 46.4 °F 38.3 °F 42.8 °F 87% 30.27 in 10.0 mi WSW 23.0 mph 31.1 mph N/A   Clear
5:35 AM 46.4 °F 38.1 °F 42.8 °F 87% 30.27 in 10.0 mi West 24.2 mph - N/A   Scattered Clouds
5:55 AM 46.4 °F 37.9 °F 42.8 °F 87% 30.27 in 10.0 mi WSW 25.3 mph 29.9 mph N/A   Scattered Clouds
7:15 AM 48.2 °F - 44.6 °F 87% 30.28 in 10.0 mi WSW 21.9 mph - N/A   Scattered Clouds
7:55 AM 48.2 °F - 44.6 °F 87% 30.30 in 10.0 mi West 16.1 mph - N/A   Clear
8:15 AM 48.2 °F - 44.6 °F 87% 30.30 in 10.0 mi West 16.1 mph - N/A   Scattered Clouds
8:55 AM 50.0 °F - 46.4 °F 87% 30.31 in 10.0 mi West 18.4 mph 21.9 mph N/A   Clear
9:15 AM 50.0 °F - 46.4 °F 87% 30.31 in 10.0 mi West 16.1 mph 21.9 mph N/A   Clear
9:35 AM 51.8 °F - 46.4 °F 82% 30.32 in 10.0 mi West 18.4 mph 28.8 mph N/A   Clear
9:55 AM 51.8 °F - 46.4 °F 82% 30.32 in 10.0 mi West 19.6 mph 27.6 mph N/A   Scattered Clouds
10:15 AM 51.8 °F - 46.4 °F 82% 30.33 in 10.0 mi West 17.3 mph 24.2 mph N/A   Scattered Clouds
10:35 AM 53.6 °F - 48.2 °F 82% 30.33 in 10.0 mi West 17.3 mph 21.9 mph N/A   Scattered Clouds
10:55 AM 53.6 °F - 48.2 °F 82% 30.33 in 10.0 mi West 15.0 mph 25.3 mph N/A   Scattered Clouds
11:15 AM 53.6 °F - 48.2 °F 82% 30.33 in 10.0 mi West 18.4 mph 23.0 mph N/A   Scattered Clouds
11:35 AM 53.6 °F - 48.2 °F 82% 30.32 in 10.0 mi West 15.0 mph - N/A   Mostly Cloudy
11:55 AM 53.6 °F - 48.2 °F 82% 30.32 in 10.0 mi West 15.0 mph 21.9 mph N/A   Scattered Clouds
12:15 PM 53.6 °F - 48.2 °F 82% 30.31 in 10.0 mi West 15.0 mph 23.0 mph N/A   Mostly Cloudy
12:35 PM 55.4 °F - 48.2 °F 77% 30.31 in 10.0 mi West 16.1 mph 21.9 mph N/A   Mostly Cloudy
12:55 PM 55.4 °F - 48.2 °F 77% 30.30 in 10.0 mi West 12.7 mph 18.4 mph N/A   Mostly Cloudy
1:15 PM 55.4 °F - 48.2 °F 77% 30.30 in 10.0 mi West 13.8 mph 21.9 mph N/A   Overcast
1:55 PM 55.4 °F - 48.2 °F 77% 30.29 in 10.0 mi West 13.8 mph 18.4 mph N/A   Overcast
2:15 PM 53.6 °F - 48.2 °F 82% 30.29 in 10.0 mi West 12.7 mph - N/A   Overcast
2:35 PM 55.4 °F - 48.2 °F 77% 30.29 in 10.0 mi West 8.1 mph 16.1 mph N/A   Overcast
2:55 PM 53.6 °F - 48.2 °F 82% 30.29 in 10.0 mi West 5.8 mph - N/A   Overcast
3:15 PM 53.6 °F - 48.2 °F 82% 30.28 in 10.0 mi West 9.2 mph - N/A   Overcast
3:35 PM 55.4 °F - 48.2 °F 77% 30.29 in 10.0 mi West 9.2 mph - N/A   Overcast
3:55 PM 55.4 °F - 50.0 °F 82% 30.29 in 10.0 mi West 12.7 mph - N/A   Overcast
4:15 PM 53.6 °F - 50.0 °F 88% 30.28 in 10.0 mi West 11.5 mph 20.7 mph N/A   Overcast
4:35 PM 53.6 °F - 50.0 °F 88% 30.27 in 10.0 mi WSW 8.1 mph - N/A   Overcast
4:55 PM 53.6 °F - 50.0 °F 88% 30.27 in 10.0 mi WSW 4.6 mph - N/A   Overcast
5:15 PM 53.6 °F - 50.0 °F 88% 30.28 in 10.0 mi WSW 8.1 mph - N/A   Overcast
5:35 PM 53.6 °F - 50.0 °F 88% 30.29 in 10.0 mi SW 8.1 mph - N/A   Overcast
5:55 PM 55.4 °F - 50.0 °F 82% 30.30 in 10.0 mi SW 8.1 mph - N/A   Overcast
6:15 PM 55.4 °F - 48.2 °F 77% 30.30 in 10.0 mi SW 9.2 mph - N/A   Overcast
6:35 PM 53.6 °F - 48.2 °F 82% 30.29 in 10.0 mi SW 5.8 mph - N/A   Overcast
6:55 PM 55.4 °F - 48.2 °F 77% 30.29 in 10.0 mi SSW 6.9 mph - N/A   Overcast
7:15 PM 55.4 °F - 48.2 °F 77% 30.29 in 10.0 mi South 6.9 mph - N/A   Overcast
7:35 PM 55.4 °F - 48.2 °F 77% 30.28 in 10.0 mi SSW 6.9 mph - N/A   Overcast
7:55 PM 55.4 °F - 48.2 °F 77% 30.28 in 10.0 mi SSW 6.9 mph - N/A   Overcast
8:35 PM 55.4 °F - 48.2 °F 77% 30.27 in 10.0 mi SW 8.1 mph - N/A   Overcast
8:55 PM 55.4 °F - 48.2 °F 77% 30.26 in 10.0 mi SW 6.9 mph - N/A   Mostly Cloudy
9:15 PM 55.4 °F - 50.0 °F 82% 30.26 in 10.0 mi SW 8.1 mph - N/A   Overcast
9:55 PM 53.6 °F - 48.2 °F 82% 30.26 in 10.0 mi WSW 9.2 mph - N/A   Overcast
10:15 PM 53.6 °F - 48.2 °F 82% 30.25 in 10.0 mi WSW 9.2 mph - N/A   Overcast
10:35 PM 53.6 °F - 50.0 °F 88% 30.25 in 10.0 mi WSW 12.7 mph - N/A   Overcast
10:55 PM 53.6 °F - 50.0 °F 88% 30.25 in 7.0 mi WSW 12.7 mph 17.3 mph N/A Rain Rain
11:15 PM 53.6 °F - 51.8 °F 94% 30.24 in 10.0 mi West 12.7 mph - N/A   Overcast
11:35 PM 53.6 °F - 51.8 °F 94% 30.24 in 10.0 mi West 12.7 mph - N/A   Overcast
11:55 PM 51.8 °F - 51.8 °F 100% 30.24 in 10.0 mi West 12.7 mph 17.3 mph N/A   Overcast